LBT715 LFBO-DTTA

Flight info

Callsign LBT715
Flight time 1h 23m
Altitude 37000
Route AMOLO DCT DEGOL DCT FJR DCT AMFAC DCT BATIV DCT PELOS DCT IPROM DCT CAR DCT NOLSI/N0428F230 A868 MEDAR
Aircraft A320/M-SDE3FGHIRWY/LB1

Departure

Time 2026-04-26 22:38
Airport Toulouse-Blagnac Airport (LFBO)

Arrival

Time 2026-04-27 00:01
Airport Tunis Carthage International Airport (DTTA)
Time Latitude Longitude Altitude Speed Heading
2026-04-26 22:15 43.63140 1.36998 494 ft 0 kts 36°
2026-04-26 22:27 43.63133 1.36991 484 ft 2 kts 36°
2026-04-26 22:27 43.63123 1.36982 484 ft 3 kts 45°
2026-04-26 22:28 43.63113 1.36962 486 ft 3 kts 81°
2026-04-26 22:28 43.63112 1.36938 486 ft 2 kts 88°
2026-04-26 22:28 43.63111 1.36915 486 ft 3 kts 107°
2026-04-26 22:28 43.63117 1.36893 486 ft 2 kts 114°
2026-04-26 22:29 43.63124 1.36878 483 ft 0 kts 136°
2026-04-26 22:29 43.63118 1.36884 489 ft 4 kts 143°
2026-04-26 22:30 43.63081 1.36918 490 ft 6 kts 143°
2026-04-26 22:30 43.63068 1.36938 489 ft 0 kts 129°
2026-04-26 22:32 43.63062 1.36947 488 ft 6 kts 129°
2026-04-26 22:33 43.63043 1.36995 488 ft 11 kts 115°
2026-04-26 22:33 43.62937 1.37214 494 ft 18 kts 143°
2026-04-26 22:33 43.62832 1.37323 494 ft 22 kts 143°
2026-04-26 22:34 43.62725 1.37435 488 ft 14 kts 143°
2026-04-26 22:34 43.62665 1.37478 489 ft 8 kts 177°
2026-04-26 22:34 43.62621 1.37440 491 ft 8 kts 224°
2026-04-26 22:34 43.62585 1.37380 489 ft 9 kts 232°
2026-04-26 22:35 43.62525 1.37353 490 ft 10 kts 161°
2026-04-26 22:35 43.62469 1.37395 494 ft 9 kts 144°
2026-04-26 22:35 43.62423 1.37442 494 ft 8 kts 144°
2026-04-26 22:35 43.62366 1.37501 494 ft 13 kts 143°
2026-04-26 22:36 43.62260 1.37610 490 ft 18 kts 143°
2026-04-26 22:36 43.62166 1.37654 492 ft 18 kts 200°
2026-04-26 22:36 43.62075 1.37514 494 ft 23 kts 233°
2026-04-26 22:36 43.61971 1.37325 491 ft 21 kts 233°
2026-04-26 22:37 43.61927 1.37208 494 ft 8 kts 270°
2026-04-26 22:37 43.61954 1.37149 489 ft 10 kts 319°
2026-04-26 22:37 43.62189 1.36906 491 ft 80 kts 323°
2026-04-26 22:37 43.62804 1.36263 486 ft 138 kts 322°
2026-04-26 22:38 43.63634 1.35391 849 ft 151 kts 323°
2026-04-26 22:38 43.64498 1.34591 1451 ft 157 kts 327°
2026-04-26 22:38 43.65469 1.33666 1795 ft 179 kts 324°
2026-04-26 22:38 43.66533 1.32610 2218 ft 198 kts 325°
2026-04-26 22:39 43.67711 1.31479 2670 ft 214 kts 324°
2026-04-26 22:39 43.69004 1.30292 3149 ft 233 kts 338°
2026-04-26 22:39 43.70652 1.30104 3716 ft 252 kts 14°
2026-04-26 22:39 43.72157 1.31412 4404 ft 266 kts 50°
2026-04-26 22:40 43.73147 1.33588 5307 ft 270 kts 64°
2026-04-26 22:40 43.73903 1.35944 6238 ft 274 kts 67°
2026-04-26 22:40 43.74690 1.38358 7147 ft 277 kts 65°
2026-04-26 22:40 43.75562 1.40756 8001 ft 282 kts 62°
2026-04-26 22:41 43.76527 1.43146 8857 ft 287 kts 59°
2026-04-26 22:41 43.77562 1.45529 9738 ft 291 kts 58°
2026-04-26 22:41 43.78652 1.47926 10425 ft 302 kts 57°
2026-04-26 22:41 43.79837 1.50465 10710 ft 326 kts 56°
2026-04-26 22:42 43.81109 1.53195 10944 ft 349 kts 59°
2026-04-26 22:42 43.82208 1.56262 11120 ft 373 kts 68°
2026-04-26 22:42 43.83031 1.59770 11314 ft 392 kts 73°
2026-04-26 22:42 43.83821 1.63431 11852 ft 400 kts 73°
2026-04-26 22:43 43.84620 1.67142 12499 ft 404 kts 73°
2026-04-26 22:43 43.85429 1.70889 13140 ft 409 kts 73°
2026-04-26 22:43 43.86251 1.74691 13784 ft 413 kts 73°
2026-04-26 22:43 43.87082 1.78519 14374 ft 417 kts 73°
2026-04-26 22:44 43.87922 1.82386 14957 ft 421 kts 73°
2026-04-26 22:44 43.88766 1.86292 15534 ft 424 kts 73°
2026-04-26 22:44 43.89599 1.90165 16085 ft 427 kts 73°
2026-04-26 22:44 43.90448 1.94129 16652 ft 430 kts 73°
2026-04-26 22:45 43.91220 1.98147 17167 ft 434 kts 79°
2026-04-26 22:45 43.91546 2.02317 17690 ft 437 kts 89°
2026-04-26 22:45 43.91367 2.06534 18198 ft 440 kts 98°
2026-04-26 22:45 43.90745 2.10701 18647 ft 443 kts 103°
2026-04-26 22:46 43.90047 2.14880 19068 ft 446 kts 103°
2026-04-26 22:46 43.89345 2.19082 19482 ft 448 kts 103°
2026-04-26 22:46 43.88638 2.23298 19889 ft 451 kts 103°
2026-04-26 22:46 43.87934 2.27485 20281 ft 453 kts 103°
2026-04-26 22:47 43.87219 2.31748 20661 ft 455 kts 103°
2026-04-26 22:47 43.86503 2.36028 21024 ft 458 kts 103°
2026-04-26 22:47 43.85778 2.40334 21373 ft 460 kts 103°
2026-04-26 22:47 43.85047 2.44659 21716 ft 462 kts 103°
2026-04-26 22:48 43.84309 2.49004 22054 ft 465 kts 103°
2026-04-26 22:48 43.83562 2.53370 22382 ft 467 kts 103°
2026-04-26 22:48 43.82810 2.57756 22713 ft 469 kts 103°
2026-04-26 22:48 43.82066 2.62104 23016 ft 471 kts 103°
2026-04-26 22:49 43.81309 2.66529 23315 ft 474 kts 103°
2026-04-26 22:49 43.80544 2.70972 23596 ft 476 kts 103°
2026-04-26 22:49 43.79771 2.75434 23855 ft 478 kts 103°
2026-04-26 22:49 43.78988 2.79913 24085 ft 480 kts 103°
2026-04-26 22:50 43.78200 2.84409 24298 ft 482 kts 103°
2026-04-26 22:50 43.77412 2.88919 24516 ft 483 kts 103°
2026-04-26 22:50 43.76620 2.93446 24717 ft 485 kts 103°
2026-04-26 22:50 43.75825 2.97989 24891 ft 487 kts 103°
2026-04-26 22:51 43.75035 3.02485 25062 ft 488 kts 103°
2026-04-26 22:51 43.74229 3.07045 25217 ft 489 kts 103°
2026-04-26 22:51 43.73418 3.11618 25366 ft 490 kts 103°
2026-04-26 22:51 43.72601 3.16201 25521 ft 491 kts 103°
2026-04-26 22:52 43.71784 3.20775 25738 ft 490 kts 103°
2026-04-26 22:52 43.70968 3.25346 25962 ft 489 kts 103°
2026-04-26 22:52 43.70152 3.29906 26182 ft 488 kts 103°
2026-04-26 22:52 43.69336 3.34461 26393 ft 488 kts 103°
2026-04-26 22:53 43.68529 3.38950 26616 ft 487 kts 103°
2026-04-26 22:53 43.67710 3.43483 26855 ft 487 kts 103°
2026-04-26 22:53 43.66890 3.48018 27117 ft 485 kts 103°
2026-04-26 22:53 43.66074 3.52534 27359 ft 484 kts 103°
2026-04-26 22:54 43.65258 3.57043 27613 ft 483 kts 103°
2026-04-26 22:54 43.64444 3.61536 27876 ft 482 kts 103°
2026-04-26 22:54 43.63627 3.66027 28134 ft 482 kts 103°
2026-04-26 22:54 43.62809 3.70507 28391 ft 481 kts 103°
2026-04-26 22:55 43.61989 3.74987 28647 ft 481 kts 103°
2026-04-26 22:55 43.61165 3.79460 28904 ft 481 kts 103°
2026-04-26 22:55 43.60341 3.83928 29160 ft 480 kts 103°
2026-04-26 22:55 43.59527 3.88330 29416 ft 480 kts 103°
2026-04-26 22:56 43.58625 3.92756 29673 ft 480 kts 108°
2026-04-26 22:56 43.57295 3.96982 29931 ft 481 kts 117°
2026-04-26 22:56 43.55517 4.00885 30197 ft 481 kts 126°
2026-04-26 22:56 43.53359 4.04416 30426 ft 481 kts 131°
2026-04-26 22:57 43.51131 4.07854 30640 ft 481 kts 131°
2026-04-26 22:57 43.48902 4.11303 30856 ft 482 kts 131°
2026-04-26 22:57 43.46678 4.14748 31073 ft 482 kts 131°
2026-04-26 22:57 43.44480 4.18147 31284 ft 482 kts 131°
2026-04-26 22:58 43.42254 4.21590 31511 ft 482 kts 131°
2026-04-26 22:58 43.40027 4.25033 31715 ft 482 kts 131°
2026-04-26 22:58 43.37800 4.28473 31945 ft 482 kts 131°
2026-04-26 22:58 43.35571 4.31910 32157 ft 482 kts 131°
2026-04-26 22:59 43.33341 4.35342 32387 ft 481 kts 131°
2026-04-26 22:59 43.31109 4.38768 32611 ft 481 kts 131°
2026-04-26 22:59 43.28874 4.42193 32834 ft 481 kts 131°
2026-04-26 22:59 43.26640 4.45608 33059 ft 481 kts 132°
2026-04-26 23:00 43.24434 4.48975 33278 ft 481 kts 132°
2026-04-26 23:00 43.22196 4.52388 33509 ft 481 kts 132°
2026-04-26 23:00 43.19962 4.55794 33734 ft 481 kts 132°
2026-04-26 23:00 43.17726 4.59201 33956 ft 481 kts 132°
2026-04-26 23:01 43.15491 4.62606 34173 ft 481 kts 132°
2026-04-26 23:01 43.13254 4.66016 34375 ft 481 kts 132°
2026-04-26 23:01 43.11022 4.69414 34604 ft 479 kts 132°
2026-04-26 23:01 43.08823 4.72757 34829 ft 478 kts 132°
2026-04-26 23:02 43.06597 4.76131 35060 ft 477 kts 132°
2026-04-26 23:02 43.02147 4.82860 35160 ft 477 kts 132°
2026-04-26 23:03 42.97688 4.89576 35161 ft 477 kts 132°
2026-04-26 23:03 42.93229 4.96281 35164 ft 477 kts 132°
2026-04-26 23:04 42.88796 5.02938 35166 ft 477 kts 132°
2026-04-26 23:04 42.84703 5.10038 35168 ft 477 kts 126°
2026-04-26 23:05 42.80778 5.17307 35171 ft 476 kts 126°
2026-04-26 23:05 42.76848 5.24565 35168 ft 476 kts 126°
2026-04-26 23:06 42.72909 5.31805 35175 ft 476 kts 126°
2026-04-26 23:06 42.69005 5.38988 35170 ft 475 kts 126°
2026-04-26 23:07 42.65066 5.46196 35174 ft 475 kts 126°
2026-04-26 23:07 42.61120 5.53382 35181 ft 474 kts 126°
2026-04-26 23:08 42.57182 5.60568 35175 ft 474 kts 126°
2026-04-26 23:08 42.53276 5.67689 35167 ft 474 kts 126°
2026-04-26 23:09 42.49337 5.74843 35168 ft 473 kts 127°
2026-04-26 23:09 42.45389 5.81976 35168 ft 473 kts 127°
2026-04-26 23:10 42.41438 5.89093 35168 ft 473 kts 127°
2026-04-26 23:10 42.37513 5.96159 35163 ft 473 kts 127°
2026-04-26 23:11 42.33566 6.03262 35164 ft 472 kts 127°
2026-04-26 23:11 42.29619 6.10344 35159 ft 472 kts 127°
2026-04-26 23:12 42.25660 6.17415 35160 ft 472 kts 127°
2026-04-26 23:12 42.21706 6.24472 35161 ft 471 kts 127°
2026-04-26 23:13 42.17771 6.31463 35162 ft 471 kts 127°
2026-04-26 23:13 42.13813 6.38493 35165 ft 471 kts 127°
2026-04-26 23:14 42.09880 6.45542 35165 ft 470 kts 126°
2026-04-26 23:14 42.06078 6.52703 35168 ft 470 kts 125°
2026-04-26 23:15 42.02322 6.59830 35168 ft 470 kts 125°
2026-04-26 23:15 41.98502 6.66965 35166 ft 470 kts 126°
2026-04-26 23:16 41.94664 6.74070 35173 ft 470 kts 126°
2026-04-26 23:16 41.90819 6.81168 35168 ft 470 kts 126°
2026-04-26 23:17 41.87005 6.88207 35170 ft 469 kts 126°
2026-04-26 23:17 41.83168 6.95294 35171 ft 469 kts 126°
2026-04-26 23:18 41.79328 7.02363 35171 ft 469 kts 126°
2026-04-26 23:18 41.75483 7.09411 35174 ft 469 kts 126°
2026-04-26 23:19 41.71658 7.16406 35175 ft 468 kts 126°
2026-04-26 23:19 41.67447 7.22993 35172 ft 467 kts 143°
2026-04-26 23:20 41.62084 7.27906 35172 ft 467 kts 146°
2026-04-26 23:20 41.56679 7.32718 35171 ft 467 kts 147°
2026-04-26 23:21 41.51271 7.37519 35171 ft 467 kts 147°
2026-04-26 23:21 41.45905 7.42298 35169 ft 467 kts 146°
2026-04-26 23:22 41.40505 7.47102 35168 ft 467 kts 147°
2026-04-26 23:22 41.35102 7.51892 35171 ft 467 kts 147°
2026-04-26 23:23 41.29697 7.56680 35170 ft 467 kts 147°
2026-04-26 23:23 41.24327 7.61427 35169 ft 467 kts 148°
2026-04-26 23:24 41.18913 7.66194 35166 ft 467 kts 148°
2026-04-26 23:24 41.13494 7.70953 35165 ft 467 kts 148°
2026-04-26 23:25 41.08071 7.75713 35169 ft 467 kts 148°
2026-04-26 23:25 41.02652 7.80463 35169 ft 467 kts 148°
2026-04-26 23:26 40.97268 7.85177 35168 ft 467 kts 148°
2026-04-26 23:26 40.91850 7.89913 35168 ft 467 kts 148°
2026-04-26 23:27 40.86432 7.94640 35167 ft 467 kts 148°
2026-04-26 23:27 40.81008 7.99356 35169 ft 466 kts 148°
2026-04-26 23:28 40.75626 8.04024 35165 ft 466 kts 148°
2026-04-26 23:28 40.70209 8.08717 35166 ft 466 kts 148°
2026-04-26 23:29 40.64785 8.13405 35163 ft 466 kts 148°
2026-04-26 23:29 40.59366 8.18079 35162 ft 465 kts 148°
2026-04-26 23:30 40.53947 8.22729 35165 ft 465 kts 148°
2026-04-26 23:30 40.48560 8.27347 35163 ft 465 kts 147°
2026-04-26 23:31 40.43150 8.31993 35168 ft 465 kts 147°
2026-04-26 23:31 40.37737 8.36630 35181 ft 465 kts 147°
2026-04-26 23:32 40.32318 8.41253 35173 ft 464 kts 147°
2026-04-26 23:32 40.26941 8.45839 35176 ft 464 kts 147°
2026-04-26 23:33 40.21528 8.50450 35185 ft 464 kts 147°
2026-04-26 23:33 40.16114 8.55048 35182 ft 464 kts 148°
2026-04-26 23:34 40.10697 8.59634 35177 ft 464 kts 148°
2026-04-26 23:34 40.05276 8.64205 35180 ft 464 kts 148°
2026-04-26 23:35 39.99895 8.68758 35187 ft 464 kts 148°
2026-04-26 23:35 39.94482 8.73327 35182 ft 464 kts 148°
2026-04-26 23:36 39.89056 8.77887 35187 ft 464 kts 148°
2026-04-26 23:36 39.83632 8.82452 35187 ft 464 kts 148°
2026-04-26 23:37 39.78237 8.86966 35193 ft 464 kts 148°
2026-04-26 23:37 39.72804 8.91508 35184 ft 464 kts 148°
2026-04-26 23:38 39.67371 8.96047 35189 ft 464 kts 148°
2026-04-26 23:38 39.61940 9.00572 35173 ft 464 kts 148°
2026-04-26 23:39 39.56496 9.05097 35170 ft 464 kts 148°
2026-04-26 23:39 39.51092 9.09578 35166 ft 465 kts 148°
2026-04-26 23:40 39.45645 9.14090 35171 ft 465 kts 148°
2026-04-26 23:40 39.40196 9.18594 35161 ft 465 kts 148°
2026-04-26 23:41 39.34749 9.23091 35190 ft 465 kts 148°
2026-04-26 23:41 39.29298 9.27585 35181 ft 465 kts 149°
2026-04-26 23:42 39.23880 9.32046 35178 ft 465 kts 149°
2026-04-26 23:42 39.14457 9.39770 35179 ft 466 kts 149°
2026-04-26 23:43 39.03502 9.48713 35168 ft 466 kts 149°
2026-04-26 23:43 38.92603 9.57597 35161 ft 468 kts 150°
2026-04-26 23:44 38.81573 9.66534 35147 ft 470 kts 150°
2026-04-26 23:44 38.70495 9.75491 35151 ft 472 kts 151°
2026-04-26 23:45 38.59352 9.84464 35156 ft 474 kts 152°
2026-04-26 23:45 38.48147 9.93454 35151 ft 477 kts 152°
2026-04-26 23:46 38.36959 10.02391 35152 ft 478 kts 153°
2026-04-26 23:46 38.25657 10.11383 34811 ft 478 kts 153°
2026-04-26 23:47 38.19967 10.15898 32565 ft 485 kts 152°
2026-04-26 23:47 38.14273 10.20417 28966 ft 484 kts 150°
2026-04-26 23:47 38.08537 10.24940 25368 ft 478 kts 152°
2026-04-26 23:47 38.02503 10.27874 23122 ft 465 kts 171°
2026-04-26 23:48 37.96204 10.28236 21144 ft 454 kts 185°
2026-04-26 23:48 37.89920 10.27929 19283 ft 449 kts 184°
2026-04-26 23:48 37.83700 10.27669 17379 ft 444 kts 184°
2026-04-26 23:48 37.77581 10.27391 15708 ft 435 kts 185°
2026-04-26 23:49 37.71588 10.27100 14144 ft 428 kts 185°
2026-04-26 23:49 37.65697 10.26812 12599 ft 418 kts 185°
2026-04-26 23:49 37.59970 10.26546 11285 ft 403 kts 185°
2026-04-26 23:49 37.54648 10.26310 11033 ft 364 kts 185°
2026-04-26 23:50 37.49814 10.26351 10789 ft 333 kts 180°
2026-04-26 23:50 37.45377 10.26690 10544 ft 307 kts 180°
2026-04-26 23:50 37.42924 10.26869 10266 ft 300 kts 180°
2026-04-26 23:50 37.40850 10.27017 10048 ft 297 kts 180°
2026-04-26 23:51 37.38795 10.27164 9652 ft 295 kts 180°
2026-04-26 23:51 37.36753 10.27309 9270 ft 293 kts 180°
2026-04-26 23:51 37.34725 10.27455 8893 ft 291 kts 180°
2026-04-26 23:51 37.32715 10.27601 8486 ft 288 kts 179°
2026-04-26 23:52 37.30718 10.27746 8112 ft 286 kts 179°
2026-04-26 23:52 37.28734 10.27890 7591 ft 289 kts 179°
2026-04-26 23:52 37.26716 10.28036 7161 ft 288 kts 179°
2026-04-26 23:52 37.24739 10.28180 6696 ft 281 kts 179°
2026-04-26 23:53 37.22795 10.28323 5977 ft 279 kts 178°
2026-04-26 23:53 37.20878 10.28464 5427 ft 270 kts 178°
2026-04-26 23:53 37.19090 10.28595 5129 ft 253 kts 178°
2026-04-26 23:53 37.17381 10.28717 4810 ft 239 kts 178°
2026-04-26 23:54 37.15758 10.28832 4472 ft 228 kts 178°
2026-04-26 23:54 37.14197 10.28944 4150 ft 224 kts 178°
2026-04-26 23:54 37.12645 10.29054 3825 ft 223 kts 177°
2026-04-26 23:54 37.11097 10.29164 3510 ft 223 kts 176°
2026-04-26 23:55 37.09552 10.29210 3199 ft 221 kts 184°
2026-04-26 23:55 37.08069 10.28953 3120 ft 211 kts 190°
2026-04-26 23:55 37.06634 10.28581 3121 ft 208 kts 192°
2026-04-26 23:55 37.05282 10.28211 3115 ft 198 kts 192°
2026-04-26 23:56 37.03955 10.27847 3117 ft 193 kts 192°
2026-04-26 23:56 37.02646 10.27489 3090 ft 192 kts 192°
2026-04-26 23:56 37.01349 10.27134 2936 ft 187 kts 192°
2026-04-26 23:56 37.00091 10.26790 2698 ft 183 kts 191°
2026-04-26 23:57 36.98863 10.26454 2453 ft 176 kts 191°
2026-04-26 23:57 36.97711 10.26139 2217 ft 163 kts 191°
2026-04-26 23:57 36.96649 10.25849 2018 ft 150 kts 191°
2026-04-26 23:57 36.95664 10.25580 1832 ft 141 kts 191°
2026-04-26 23:58 36.94736 10.25326 1668 ft 137 kts 191°
2026-04-26 23:58 36.93814 10.25070 1418 ft 134 kts 191°
2026-04-26 23:58 36.92905 10.24822 1240 ft 134 kts 191°
2026-04-26 23:58 36.91996 10.24575 1053 ft 133 kts 191°
2026-04-26 23:59 36.91092 10.24329 892 ft 133 kts 191°
2026-04-26 23:59 36.90186 10.24082 745 ft 134 kts 191°
2026-04-26 23:59 36.89278 10.23834 554 ft 133 kts 191°
2026-04-26 23:59 36.88374 10.23586 397 ft 133 kts 191°
2026-04-27 00:00 36.87469 10.23340 203 ft 133 kts 191°
2026-04-27 00:00 36.86583 10.23102 60 ft 131 kts 192°
2026-04-27 00:00 36.85754 10.22879 31 ft 100 kts 192°
2026-04-27 00:00 36.85214 10.22731 34 ft 67 kts 193°
2026-04-27 00:01 36.84772 10.22612 32 ft 64 kts 192°
2026-04-27 00:01 36.84542 10.22489 29 ft 23 kts 225°
2026-04-27 00:01 36.84486 10.22364 30 ft 15 kts 259°
2026-04-27 00:01 36.84487 10.22245 30 ft 13 kts 280°
2026-04-27 00:02 36.84502 10.22139 30 ft 12 kts 277°
2026-04-27 00:02 36.84477 10.22054 30 ft 10 kts 236°
2026-04-27 00:02 36.84428 10.21987 30 ft 15 kts 213°
2026-04-27 00:02 36.84316 10.21950 30 ft 15 kts 192°
2026-04-27 00:03 36.84263 10.21925 30 ft 5 kts 240°
2026-04-27 00:03 36.84272 10.21885 30 ft 5 kts 296°
2026-04-27 00:03 36.84280 10.21849 30 ft 4 kts 283°
2026-04-27 00:03 36.84281 10.21843 30 ft 0 kts 283°